DITXL EDHL-EDWW

Flight info

Callsign DITXL
Flight time N/A
Altitude 2000
Route EDHL/07
Aircraft B58T/L-V/N

Departure

Time 2026-04-27 20:21
Airport Lübeck Blankensee Airport (EDHL)

Arrival

Time N/A
Airport EDWW
Time Latitude Longitude Altitude Speed Heading
2026-04-27 20:20 53.80292 10.70673 54 ft 0 kts 69°
2026-04-27 20:21 53.80306 10.70730 52 ft 12 kts 70°
2026-04-27 20:21 53.80410 10.71285 58 ft 94 kts 72°
2026-04-27 20:21 53.80652 10.72525 400 ft 120 kts 69°
2026-04-27 20:21 53.81133 10.73682 766 ft 144 kts 359°
2026-04-27 20:22 53.82106 10.73180 1226 ft 148 kts 345°
2026-04-27 20:22 53.82697 10.71761 1306 ft 175 kts 270°
2026-04-27 20:22 53.82405 10.69754 1305 ft 173 kts 253°
2026-04-27 20:22 53.82035 10.67832 1303 ft 172 kts 251°
2026-04-27 20:23 53.81601 10.65928 1251 ft 173 kts 248°
2026-04-27 20:23 53.81103 10.64092 1233 ft 169 kts 230°
2026-04-27 20:23 53.80110 10.63862 1017 ft 141 kts 153°
2026-04-27 20:23 53.79400 10.64809 782 ft 125 kts 108°
2026-04-27 20:24 53.79451 10.66195 604 ft 118 kts 70°
2026-04-27 20:24 53.79703 10.67503 436 ft 116 kts 71°
2026-04-27 20:24 53.79922 10.68711 303 ft 99 kts 68°
2026-04-27 20:24 53.80126 10.69785 183 ft 99 kts 72°
2026-04-27 20:25 53.80335 10.70886 60 ft 88 kts 71°
2026-04-27 20:25 53.80490 10.71699 60 ft 81 kts 72°
2026-04-27 20:25 53.80714 10.72873 357 ft 116 kts 71°
2026-04-27 20:25 53.81006 10.74232 869 ft 128 kts 64°
2026-04-27 20:26 53.81754 10.74999 1124 ft 143 kts 359°
2026-04-27 20:26 53.82737 10.74436 1350 ft 153 kts 340°
2026-04-27 20:26 53.83507 10.73157 1448 ft 176 kts 287°
2026-04-27 20:26 53.83271 10.71150 1519 ft 179 kts 245°
2026-04-27 20:27 53.82774 10.69209 1544 ft 178 kts 248°
2026-04-27 20:27 53.82310 10.67271 1322 ft 175 kts 248°
2026-04-27 20:27 53.81551 10.66019 1128 ft 141 kts 182°
2026-04-27 20:27 53.80670 10.66235 894 ft 124 kts 162°
2026-04-27 20:28 53.79917 10.66787 681 ft 117 kts 125°
2026-04-27 20:28 53.79750 10.67986 503 ft 107 kts 73°
2026-04-27 20:28 53.79996 10.69065 267 ft 82 kts 56°
2026-04-27 20:28 53.80120 10.69674 211 ft 89 kts 75°
2026-04-27 20:29 53.80380 10.71125 58 ft 88 kts 71°
2026-04-27 20:29 53.80550 10.72012 54 ft 99 kts 71°
2026-04-27 20:29 53.80791 10.73222 485 ft 117 kts 70°
2026-04-27 20:29 53.81336 10.74334 876 ft 138 kts 15°
2026-04-27 20:30 53.82292 10.73770 1188 ft 160 kts 333°
2026-04-27 20:30 53.83127 10.72431 1463 ft 178 kts 292°
2026-04-27 20:30 53.82914 10.70362 1518 ft 186 kts 248°
2026-04-27 20:30 53.82425 10.68348 1684 ft 184 kts 245°
2026-04-27 20:31 53.81878 10.66384 1802 ft 186 kts 243°
2026-04-27 20:31 53.81250 10.64696 1572 ft 153 kts 208°
2026-04-27 20:31 53.80267 10.64670 1306 ft 148 kts 157°
2026-04-27 20:31 53.79528 10.65546 852 ft 119 kts 109°
2026-04-27 20:32 53.79562 10.66886 575 ft 116 kts 73°
2026-04-27 20:32 53.79813 10.68101 392 ft 102 kts 61°
2026-04-27 20:32 53.79992 10.69217 256 ft 92 kts 62°
2026-04-27 20:32 53.80212 10.70262 125 ft 95 kts 72°
2026-04-27 20:33 53.80391 10.71175 54 ft 65 kts 70°
2026-04-27 20:33 53.80487 10.71685 60 ft 31 kts 73°
2026-04-27 20:33 53.80540 10.71947 51 ft 12 kts 60°
2026-04-27 20:33 53.80581 10.71948 54 ft 9 kts 298°
2026-04-27 20:34 53.80607 10.71842 54 ft 12 kts 293°
2026-04-27 20:34 53.80649 10.71672 51 ft 17 kts 290°
2026-04-27 20:34 53.80643 10.71465 54 ft 20 kts 252°
2026-04-27 20:34 53.80599 10.71239 54 ft 19 kts 250°
2026-04-27 20:35 53.80553 10.70997 55 ft 24 kts 252°
2026-04-27 20:35 53.80502 10.70731 53 ft 23 kts 252°
2026-04-27 20:35 53.80460 10.70518 52 ft 14 kts 252°
2026-04-27 20:35 53.80478 10.70406 52 ft 11 kts 326°
2026-04-27 20:36 53.80523 10.70352 52 ft 13 kts 324°
2026-04-27 20:36 53.80602 10.70406 52 ft 9 kts 66°
2026-04-27 20:36 53.80570 10.70451 52 ft 6 kts 183°
2026-04-27 20:36 53.80541 10.70460 52 ft 3 kts 89°
2026-04-27 20:37 53.80546 10.70466 52 ft 0 kts 348°